Time,TemperatureF,DewpointF,PressureIn,WindDirection,WindDirectionDegrees,WindSpeedMPH,WindSpeedGustMPH,Humidity,HourlyPrecipIn,Conditions,Clouds,dailyrainin,SoftwareType,DateUTC
2013-12-04 00:09:00,40.9,38.0,30.00,ESE,122,0.0,0.0,88,0.00,,,0.00,weatherlink.com 1.10,2013-12-04 05:09:00,
2013-12-04 00:24:00,41.0,38.0,30.00,ESE,122,0.0,0.0,88,0.00,,,0.00,weatherlink.com 1.10,2013-12-04 05:24:00,
2013-12-04 00:39:00,41.2,38.0,30.00,ESE,122,0.0,0.0,88,0.00,,,0.00,weatherlink.com 1.10,2013-12-04 05:39:00,
2013-12-04 00:54:00,41.3,38.0,30.00,ESE,122,0.0,0.0,88,0.00,,,0.00,weatherlink.com 1.10,2013-12-04 05:54:00,
2013-12-04 01:09:00,41.3,38.0,30.01,ESE,122,0.0,0.0,88,0.00,,,0.00,weatherlink.com 1.10,2013-12-04 06:09:00,
2013-12-04 01:24:00,41.3,38.0,30.00,ESE,122,0.0,0.0,88,0.00,,,0.00,weatherlink.com 1.10,2013-12-04 06:24:00,
2013-12-04 01:39:00,41.2,38.0,30.00,ESE,122,0.0,0.0,88,0.00,,,0.00,weatherlink.com 1.10,2013-12-04 06:39:00,
2013-12-04 01:54:00,41.1,38.0,30.00,ESE,122,0.0,0.0,88,0.00,,,0.00,weatherlink.com 1.10,2013-12-04 06:54:00,
2013-12-04 02:09:00,40.9,38.0,30.01,ESE,122,0.0,0.0,88,0.00,,,0.00,weatherlink.com 1.10,2013-12-04 07:09:00,
2013-12-04 02:24:00,40.8,38.0,30.01,ESE,122,0.0,0.0,88,0.00,,,0.00,weatherlink.com 1.10,2013-12-04 07:24:00,
2013-12-04 02:39:00,40.8,38.0,30.02,ESE,122,0.0,0.0,89,0.00,,,0.00,weatherlink.com 1.10,2013-12-04 07:39:00,
2013-12-04 02:54:00,40.8,38.0,30.02,ESE,122,0.0,0.0,89,0.00,,,0.00,weatherlink.com 1.10,2013-12-04 07:54:00,
2013-12-04 03:09:00,41.0,38.0,30.03,ESE,122,0.0,0.0,89,0.00,,,0.00,weatherlink.com 1.10,2013-12-04 08:09:00,
2013-12-04 03:24:00,41.1,38.0,30.02,ESE,122,0.0,0.0,90,0.00,,,0.00,weatherlink.com 1.10,2013-12-04 08:24:00,
2013-12-04 03:39:00,41.5,39.0,30.02,ESE,122,0.0,0.0,90,0.00,,,0.00,weatherlink.com 1.10,2013-12-04 08:39:00,
2013-12-04 03:54:00,41.9,39.0,30.02,ESE,122,0.0,0.0,90,0.00,,,0.00,weatherlink.com 1.10,2013-12-04 08:54:00,
2013-12-04 04:09:00,42.2,40.0,30.01,ESE,122,0.0,0.0,90,0.00,,,0.00,weatherlink.com 1.10,2013-12-04 09:09:00,
2013-12-04 04:24:00,42.4,40.0,30.02,ESE,122,0.0,0.0,90,0.00,,,0.00,weatherlink.com 1.10,2013-12-04 09:24:00,
2013-12-04 04:39:00,42.5,40.0,30.02,ESE,122,0.0,0.0,89,0.00,,,0.00,weatherlink.com 1.10,2013-12-04 09:39:00,
2013-12-04 04:54:00,42.3,39.0,30.03,ESE,122,0.0,0.0,89,0.00,,,0.00,weatherlink.com 1.10,2013-12-04 09:54:00,
2013-12-04 05:09:00,42.0,39.0,30.02,ESE,122,0.0,0.0,88,0.00,,,0.00,weatherlink.com 1.10,2013-12-04 10:09:00,
2013-12-04 05:24:00,41.6,39.0,30.02,ESE,122,0.0,0.0,89,0.00,,,0.00,weatherlink.com 1.10,2013-12-04 10:24:00,
2013-12-04 05:39:00,41.5,39.0,30.02,ESE,122,0.0,0.0,89,0.00,,,0.00,weatherlink.com 1.10,2013-12-04 10:39:00,
2013-12-04 05:54:00,41.4,38.0,30.02,ESE,122,0.0,0.0,89,0.00,,,0.00,weatherlink.com 1.10,2013-12-04 10:54:00,
2013-12-04 06:09:00,41.2,38.0,30.02,ESE,122,0.0,0.0,89,0.00,,,0.00,weatherlink.com 1.10,2013-12-04 11:09:00,
2013-12-04 06:24:00,40.8,38.0,30.03,ESE,122,0.0,0.0,89,0.00,,,0.00,weatherlink.com 1.10,2013-12-04 11:24:00,
2013-12-04 06:39:00,40.6,38.0,30.04,ESE,122,0.0,0.0,90,0.00,,,0.00,weatherlink.com 1.10,2013-12-04 11:39:00,
2013-12-04 06:54:00,40.4,38.0,30.04,ESE,122,0.0,0.0,90,0.00,,,0.00,weatherlink.com 1.10,2013-12-04 11:54:00,
2013-12-04 07:09:00,40.3,38.0,30.05,ESE,122,0.0,0.0,90,0.00,,,0.00,weatherlink.com 1.10,2013-12-04 12:09:00,
2013-12-04 07:24:00,40.3,38.0,30.05,ESE,122,0.0,0.0,91,0.00,,,0.00,weatherlink.com 1.10,2013-12-04 12:24:00,
2013-12-04 07:39:00,40.3,38.0,30.05,ESE,122,0.0,0.0,91,0.00,,,0.00,weatherlink.com 1.10,2013-12-04 12:39:00,
2013-12-04 07:55:00,40.4,38.0,30.06,ESE,122,0.0,0.0,91,0.00,,,0.00,weatherlink.com 1.10,2013-12-04 12:55:00,
2013-12-04 08:10:00,40.4,38.0,30.06,ESE,122,0.0,0.0,91,0.00,,,0.00,weatherlink.com 1.10,2013-12-04 13:10:00,
2013-12-04 08:25:00,40.7,38.0,30.06,ESE,122,0.0,0.0,91,0.00,,,0.00,weatherlink.com 1.10,2013-12-04 13:25:00,
2013-12-04 08:40:00,41.3,39.0,30.07,ESE,122,0.0,0.0,92,0.00,,,0.00,weatherlink.com 1.10,2013-12-04 13:40:00,
2013-12-04 08:55:00,42.1,40.0,30.07,ESE,122,0.0,0.0,92,0.00,,,0.00,weatherlink.com 1.10,2013-12-04 13:55:00,
2013-12-04 09:10:00,42.8,41.0,30.07,ESE,122,0.0,0.0,92,0.00,,,0.00,weatherlink.com 1.10,2013-12-04 14:10:00,
2013-12-04 09:25:00,43.7,41.0,30.07,ESE,122,0.0,0.0,91,0.00,,,0.00,weatherlink.com 1.10,2013-12-04 14:25:00,
2013-12-04 09:40:00,44.5,42.0,30.08,ESE,122,0.0,0.0,90,0.00,,,0.00,weatherlink.com 1.10,2013-12-04 14:40:00,
2013-12-04 09:55:00,45.4,42.0,30.08,ESE,122,0.0,1.0,89,0.00,,,0.00,weatherlink.com 1.10,2013-12-04 14:55:00,
2013-12-04 10:10:00,46.3,43.0,30.08,ESE,122,0.0,1.0,88,0.00,,,0.00,weatherlink.com 1.10,2013-12-04 15:10:00,
2013-12-04 10:25:00,47.2,44.0,30.09,ESE,122,0.0,1.0,87,0.00,,,0.00,weatherlink.com 1.10,2013-12-04 15:25:00,
2013-12-04 10:40:00,48.1,44.0,30.09,ESE,122,0.0,0.0,85,0.00,,,0.00,weatherlink.com 1.10,2013-12-04 15:40:00,
2013-12-04 10:55:00,49.0,44.0,30.09,ESE,122,0.0,0.0,84,0.00,,,0.00,weatherlink.com 1.10,2013-12-04 15:55:00,
2013-12-04 11:10:00,49.8,45.0,30.08,ESE,122,0.0,0.0,83,0.00,,,0.00,weatherlink.com 1.10,2013-12-04 16:10:00,
2013-12-04 11:25:00,50.6,45.0,30.07,ESE,122,0.0,2.0,82,0.00,,,0.00,weatherlink.com 1.10,2013-12-04 16:25:00,
2013-12-04 11:40:00,51.5,46.0,30.07,ESE,120,1.0,1.0,81,0.00,,,0.00,weatherlink.com 1.10,2013-12-04 16:40:00,
2013-12-04 11:55:00,52.4,46.0,30.07,ESE,120,0.0,2.0,79,0.00,,,0.00,weatherlink.com 1.10,2013-12-04 16:55:00,
2013-12-04 12:11:00,53.3,47.0,30.06,ESE,103,1.0,2.0,79,0.00,,,0.00,weatherlink.com 1.10,2013-12-04 17:11:00,
2013-12-04 12:25:00,54.0,47.0,30.06,ESE,115,0.0,1.0,78,0.00,,,0.00,weatherlink.com 1.10,2013-12-04 17:25:00,
2013-12-04 12:40:00,54.6,48.0,30.05,ESE,115,0.0,2.0,77,0.00,,,0.00,weatherlink.com 1.10,2013-12-04 17:40:00,
2013-12-04 12:55:00,55.1,48.0,30.04,ESE,115,0.0,1.0,77,0.00,,,0.00,weatherlink.com 1.10,2013-12-04 17:55:00,
2013-12-04 13:10:00,55.5,48.0,30.04,ESE,115,0.0,0.0,77,0.00,,,0.00,weatherlink.com 1.10,2013-12-04 18:10:00,
2013-12-04 13:25:00,56.0,49.0,30.03,ESE,115,0.0,1.0,76,0.00,,,0.00,weatherlink.com 1.10,2013-12-04 18:25:00,
2013-12-04 13:40:00,56.4,49.0,30.03,ESE,112,0.0,2.0,75,0.00,,,0.00,weatherlink.com 1.10,2013-12-04 18:40:00,
2013-12-04 13:55:00,56.7,49.0,30.02,ESE,112,0.0,1.0,75,0.00,,,0.00,weatherlink.com 1.10,2013-12-04 18:55:00,
2013-12-04 14:10:00,56.9,49.0,30.02,ESE,113,0.0,2.0,74,0.00,,,0.00,weatherlink.com 1.10,2013-12-04 19:10:00,
2013-12-04 14:25:00,57.2,49.0,30.02,ESE,113,0.0,2.0,74,0.00,,,0.00,weatherlink.com 1.10,2013-12-04 19:25:00,
2013-12-04 14:40:00,57.5,49.0,30.02,ESE,105,0.0,2.0,74,0.00,,,0.00,weatherlink.com 1.10,2013-12-04 19:40:00,
2013-12-04 14:55:00,57.5,49.0,30.02,ESE,104,0.0,4.0,73,0.00,,,0.00,weatherlink.com 1.10,2013-12-04 19:55:00,
2013-12-04 15:10:00,57.3,49.0,30.02,ENE,76,0.0,2.0,73,0.00,,,0.00,weatherlink.com 1.10,2013-12-04 20:10:00,
2013-12-04 15:26:00,57.2,49.0,30.02,ENE,76,0.0,0.0,73,0.00,,,0.00,weatherlink.com 1.10,2013-12-04 20:26:00,
2013-12-04 15:41:00,57.1,49.0,30.02,ENE,76,0.0,0.0,73,0.00,,,0.00,weatherlink.com 1.10,2013-12-04 20:41:00,
2013-12-04 15:56:00,56.9,48.0,30.02,ENE,76,0.0,1.0,73,0.00,,,0.00,weatherlink.com 1.10,2013-12-04 20:56:00,
2013-12-04 16:11:00,56.8,48.0,30.02,ENE,76,0.0,0.0,73,0.00,,,0.00,weatherlink.com 1.10,2013-12-04 21:11:00,
2013-12-04 16:26:00,56.6,48.0,30.02,ENE,76,0.0,0.0,73,0.00,,,0.00,weatherlink.com 1.10,2013-12-04 21:26:00,
2013-12-04 16:41:00,56.4,48.0,30.02,ENE,76,0.0,0.0,74,0.00,,,0.00,weatherlink.com 1.10,2013-12-04 21:41:00,
2013-12-04 16:56:00,56.1,48.0,30.02,ENE,76,0.0,0.0,74,0.00,,,0.00,weatherlink.com 1.10,2013-12-04 21:56:00,
2013-12-04 17:11:00,55.9,48.0,30.03,ENE,76,0.0,0.0,75,0.00,,,0.00,weatherlink.com 1.10,2013-12-04 22:11:00,
2013-12-04 17:26:00,55.7,49.0,30.04,ENE,76,0.0,0.0,77,0.00,,,0.00,weatherlink.com 1.10,2013-12-04 22:26:00,
2013-12-04 17:41:00,55.5,49.0,30.05,ENE,76,0.0,0.0,78,0.00,,,0.00,weatherlink.com 1.10,2013-12-04 22:41:00,
2013-12-04 17:56:00,55.4,49.0,30.05,ENE,76,0.0,0.0,79,0.00,,,0.00,weatherlink.com 1.10,2013-12-04 22:56:00,
2013-12-04 18:11:00,55.2,49.0,30.05,ENE,76,0.0,0.0,80,0.00,,,0.00,weatherlink.com 1.10,2013-12-04 23:11:00,
2013-12-04 18:26:00,55.1,49.0,30.05,ENE,76,0.0,0.0,79,0.00,,,0.00,weatherlink.com 1.10,2013-12-04 23:26:00,
2013-12-04 18:41:00,54.9,49.0,30.06,ENE,76,0.0,2.0,80,0.00,,,0.00,weatherlink.com 1.10,2013-12-04 23:41:00,
2013-12-04 18:56:00,54.8,49.0,30.06,ENE,76,0.0,1.0,81,0.00,,,0.00,weatherlink.com 1.10,2013-12-04 23:56:00,
2013-12-04 19:11:00,54.7,49.0,30.07,ENE,76,0.0,1.0,81,0.00,,,0.00,weatherlink.com 1.10,2013-12-05 00:11:00,
2013-12-04 19:26:00,54.6,49.0,30.06,ENE,76,0.0,0.0,81,0.00,,,0.00,weatherlink.com 1.10,2013-12-05 00:26:00,
2013-12-04 19:41:00,54.4,49.0,30.06,ENE,76,0.0,1.0,81,0.00,,,0.00,weatherlink.com 1.10,2013-12-05 00:41:00,
2013-12-04 19:56:00,54.2,49.0,30.06,ENE,76,0.0,0.0,82,0.00,,,0.00,weatherlink.com 1.10,2013-12-05 00:56:00,
2013-12-04 20:11:00,54.1,49.0,30.07,ENE,76,0.0,0.0,83,0.00,,,0.00,weatherlink.com 1.10,2013-12-05 01:11:00,
2013-12-04 20:26:00,54.1,49.0,30.07,ENE,76,0.0,0.0,83,0.00,,,0.00,weatherlink.com 1.10,2013-12-05 01:26:00,
2013-12-04 20:41:00,53.9,49.0,30.07,ENE,76,0.0,0.0,83,0.00,,,0.00,weatherlink.com 1.10,2013-12-05 01:41:00,
2013-12-04 20:56:00,53.8,49.0,30.07,ENE,76,0.0,0.0,84,0.00,,,0.00,weatherlink.com 1.10,2013-12-05 01:56:00,
2013-12-04 21:11:00,53.7,49.0,30.08,ENE,76,0.0,0.0,84,0.00,,,0.00,weatherlink.com 1.10,2013-12-05 02:11:00,
2013-12-04 21:26:00,53.6,49.0,30.08,ENE,76,0.0,0.0,85,0.00,,,0.00,weatherlink.com 1.10,2013-12-05 02:26:00,
2013-12-04 21:41:00,53.5,49.0,30.08,ENE,76,0.0,0.0,85,0.00,,,0.00,weatherlink.com 1.10,2013-12-05 02:41:00,
2013-12-04 21:56:00,53.4,49.0,30.08,ENE,76,0.0,0.0,85,0.00,,,0.00,weatherlink.com 1.10,2013-12-05 02:56:00,
2013-12-04 22:11:00,53.4,49.0,30.08,ENE,76,0.0,1.0,86,0.00,,,0.00,weatherlink.com 1.10,2013-12-05 03:11:00,
2013-12-04 22:26:00,53.4,50.0,30.08,ENE,76,0.0,0.0,87,0.00,,,0.00,weatherlink.com 1.10,2013-12-05 03:26:00,
2013-12-04 22:41:00,53.4,50.0,30.07,ENE,76,0.0,0.0,87,0.00,,,0.00,weatherlink.com 1.10,2013-12-05 03:41:00,
2013-12-04 22:56:00,53.4,50.0,30.07,ENE,76,0.0,0.0,87,0.00,,,0.00,weatherlink.com 1.10,2013-12-05 03:56:00,
2013-12-04 23:11:00,53.4,50.0,30.07,ENE,76,0.0,0.0,88,0.00,,,0.00,weatherlink.com 1.10,2013-12-05 04:11:00,
2013-12-04 23:26:00,53.5,50.0,30.07,ENE,76,0.0,1.0,88,0.00,,,0.00,weatherlink.com 1.10,2013-12-05 04:26:00,
2013-12-04 23:41:00,53.5,50.0,30.07,ENE,76,0.0,0.0,88,0.00,,,0.00,weatherlink.com 1.10,2013-12-05 04:41:00,
2013-12-04 23:56:00,53.5,50.0,30.08,ENE,76,0.0,0.0,89,0.00,,,0.00,weatherlink.com 1.10,2013-12-05 04:56:00,